Flag for U.S.A. Weather past 2 weeks in Buffalo, New York, U.S.A.

49 °F

Broken clouds.

Feels Like: 43 °F
Forecast: 44 / 56 °F
Wind: 15 mph from Southwest

Location: Greater Buffalo International Airport

Current Time: Nov 26, 2015 at 8:29:19 AM

Latest Report: Nov 26, 2015 at 7:54 AM

Visibility: 10 mi

Pressure: 30.52 "Hg

Humidity: 46%

Dew point: 29 °F

Location of BuffaloLocation

Historic Weather in Buffalo — Graph


Buffalo temperature yesterday

Maximum temperature yesterday: 53 °F (at 2:54 PM)
Minimum temperature yesterday: 30 °F (at 2:54 AM)
Average temperature yesterday: 41 °F

Past Weeks' High & Low Weather Summary

High64 °F (Nov 18, 10:54 PM)93% (Nov 11, 6:54 AM)30.60 "Hg (Nov 11, 6:54 AM)
Low23 °F (Nov 23, 6:54 AM)31% (Nov 22, 1:54 PM)29.36 "Hg (Nov 12, 12:54 PM)
Average44 °F65%30.08 "Hg
* Reported Nov 11 6:54 AM — Nov 26 6:54 AM, Buffalo, Weather by CustomWeather, © 2015

Note: Actual official high and low records may vary slightly from our data, if they occured in-between our weather recording intervals... More about our weather records


Buffalo weather history for previous 24 hours

Time TempWeatherWind HumidityBarometerVisibility
6:54 AM
Thu, Nov 26
49 °FPartly cloudy.18 mph44%30.51 "Hg10 mi
5:54 AM49 °FPassing clouds.17 mph43%30.51 "Hg10 mi
4:54 AM48 °FClear.16 mph44%30.50 "Hg10 mi
3:54 AM48 °FPassing clouds.18 mph44%30.49 "Hg10 mi
2:54 AM47 °FPassing clouds.15 mph46%30.50 "Hg10 mi
1:54 AM47 °FPassing clouds.14 mph48%30.49 "Hg10 mi
12:54 AM45 °FPassing clouds.13 mph51%30.50 "Hg10 mi
11:54 PM
Wed, Nov 25
41 °FPassing clouds.10 mph60%30.51 "Hg10 mi
10:54 PM43 °FPassing clouds.5 mph53%30.50 "Hg10 mi
9:54 PM42 °FPassing clouds.7 mph55%30.50 "Hg10 mi
8:54 PM42 °FPartly cloudy.6 mph55%30.51 "Hg10 mi
7:54 PM43 °FPassing clouds.7 mph56%30.52 "Hg10 mi
6:54 PM46 °FPassing clouds.7 mph50%30.50 "Hg10 mi
5:54 PM48 °FPassing clouds.9 mph46%30.50 "Hg10 mi
4:54 PM50 °FPassing clouds.9 mph43%30.49 "Hg10 mi
3:54 PM52 °FPassing clouds.9 mph41%30.51 "Hg10 mi
2:54 PM53 °FPassing clouds.9 mph38%30.52 "Hg10 mi
1:54 PM52 °FPassing clouds.9 mph40%30.53 "Hg10 mi
12:54 PM51 °FScattered clouds.10 mph42%30.55 "Hg10 mi
11:54 AM47 °FPassing clouds.6 mph48%30.57 "Hg10 mi
10:54 AM44 °FPassing clouds.9 mph51%30.60 "Hg10 mi
9:54 AM40 °FPassing clouds.8 mph60%30.60 "Hg10 mi
8:54 AM35 °FPassing clouds.7 mph72%30.60 "Hg10 mi
Weather by CustomWeather, © 2015

See weather overviewHow to use our weather pages